Location: Bidart
(43.4376°N, 1.5913°W)
Time: 16:35:14
(UTC+00:00)

USA 229 DEB - Pass Details

Date: 24 April 2026
Orbit: 844 x 1364 km, 63.4° (Epoch: 10 January)

Event Time Altitude Azimuth Distance (km) Brightness Sun altitude
Rises 23:28:45 0° 323° (NW) 3,997 7.6 -32.9°
Reaches altitude 10° 23:31:21 10° 325° (NW) 3,103 6.8 -32.9°
Maximum altitude 23:38:58 80° 53° (NE) 1,299 4.0 -33.1°
Enters shadow 23:39:23 77° 90° (E) 1,313 3.9 -33.1°
